Track IRIDIUM 125 now! 10-day predictions IRIDIUM 125 is classified as:
1 42964U 17061K 24251.58604807 .00000445 00000-0 15198-3 0 9992 2 42964 86.3943 295.9832 0001831 77.7376 282.4025 14.34218040362032